カタログに戻る

SKYCRAFT 4E

運用中科学SSO
NORAD 65227·PAYLOAD·🇦🇺 Australia

打ち上げ Jul 23, 2025 から Vandenberg Space Force Base

Loading…

次のパス (今後24時間)

TLE

最新Source: Space-Track

元期: Sep 14, 2026, 14:30 UTC

1 65227U 25154L   26257.60436157  .00005087  00000-0  42584-3 0  9999
2 65227  97.6620 320.8441 0003903 350.6441   9.4708 14.98880487 60724

AllMySatでSKYCRAFT 4Eをリアルタイム追跡

Download on the App Store